Погода Ростов Великий

Погода Ростов Великий : погода сейчас, прогноз погоды и архив. Всё, что Вы хотите узнать о погоде Ростов Великий!

Хотите узнать прогноз погоды Ростов Великий? Тогда Вам сюда: Погода Ростов Великий

Поиск расширенной информации на нашем сайте:

Другие новости

Новости СМИ2

Главная страница сайта

Новости сайта

03.07.2017

Напоминаем, что на нашем специализированном сайте Метеоцентр.Азия вы можете получить высокодетализированные автоматические прогнозы погоды по пунктам России, СНГ и мира в авиационном формате (включающие направление и скорость ветра, видимость, явления погоды, количество и форму облачности, нижнюю и верхнюю границу облачности).


Погода Ростов Великий - сегодня

Время (UTC), дата Ветер
(°,м/с) 
Видим.   Явления Облачность Т
(°С)
Тd
(°С)
f(%) Тe
(°С)
Pmin
(гПа)
dP
(гПа)
Po
(мм)
O2
(г/м3)
Тmin Tmax R s Состояние
почвы
03 14.10.18 тихо ()   5000 м  в посл. час туман  10/0 средняя 
[Ac und]
+5.9 +5.4 97 +6  1024.9  -0.2  759  299  +3.7         
06 14.10.18 310 (СЗ) 4000 м  дымка{туман}  10/10 600 м 
[Sc]
+9.8 +9.2 96 +10  1024.9  0.2  759  294           
09 14.10.18 310 (СЗ) 11000 м    10/10 600 м 
[Sc]
+11.5 +10.2 92 +13  1024.9  0.1  759  292           
12 14.10.18 310 (СЗ) 20000 м    9/9 600 м 
[Sc]
+14.4 +8.9 70 +15  1023.8  -0.9  759  289           
18 14.10.18 320 (СЗ) 20000 м    ясно 
+13.7 +9.6 76 +13  1022.9  758  289           
21 14.10.18 330 (СЗ) 20000 м    ясно 
+13.1 +9.1 77 +13  1023.5  0.6  759  290           
00 15.10.18 320 (СЗ) 20000 м    ясно 
+11.1 +8.8 86 +11  1024.2  0.5  759  292           
03 15.10.18 330 (СЗ) 20000 м    ясно 
+9.8 +8.4 91 +10  1024.7  0.4  759  294  +9.8         
06 15.10.18 300 (СЗ) 20000 м    ясно 
+11.5 +9.4 87 +11  1025.4  0.8  760  292  +9.4         
09 15.10.18 300 (СЗ) н/о    ясно 
+14.5 +9.5 72 +14  1025.8  0.5  760  289           
12 15.10.18 330 (СЗ) 20000 м    ясно 
+17 +9.6 62 +17  1025.3  -0.3  760  287           
15 15.10.18 220 (ЮЗ) н/о    ясно 
+11 +8.5 85 +12  1025.4  -0.2  760  293    +17.2       
18 15.10.18 200 (Ю) 20000 м    ясно 
+8.9 +8.1 95 +9  1024.9  -0.6  759  295           
21 15.10.18 тихо ()   20000 м    ясно 
+6.4 +5.9 97 +6  1025  0.1  759  298           
00 16.10.18 210 (ЮЗ) 20000 м    ясно 
+6.1 +5.6 97 +6  1025  759  298           
03 16.10.18 200 (Ю) 20000 м    ясно 
+3.8 +3.4 97 +5  1024.8  -0.2  759  301  +3.8        влажная 
06 16.10.18 200 (Ю) 18000 м    8/0 средняя, верхняя 
[Ac trans|Ci fib]
+7.1 +6.5 96 +8  1024.4  -0.3  759  297  +3.5         
09 16.10.18 230 (ЮЗ) 21000 м    9/0 средняя, верхняя 
[Ac trans|Ci]
+13.9 +6.6 61 +14  1023.5  -0.6  758  290           
12 16.10.18 260 (З) 22000 м    6/0 верхняя 
[Cc]
+17 +4.3 43 +17  1022.1  -1.2  758  287           
18 16.10.18 250 (З) 24000 м    ясно 
+9.4 +4.6 72 +10  1021  -0.6  757  294           
21 16.10.18 290 (З) 22000 м    ясно 
+11 +4.5 64 +11  1020.8  -0.2  756  292           
00 17.10.18 290 (З) 22000 м    ясно 
+8.6 +4.4 75 +10  1021.5  0.6  757  295           
03 17.10.18 300 (СЗ) 23000 м    3/0 верхняя 
[Ci fib]
+6.4 +4.2 86 +7  1022.6  1.1  758  298  +6.4         
06 17.10.18 340 (С) 40000 м    10/0 средняя 
[Ac und]
+8.9 +5.8 81 +9  1024.3  1.8  759  295  +4.5         
09 17.10.18 310 (СЗ) 40000 м    10/10 600 м 
[Sc]
+11.9 +6.9 71 +13  1025.6  1.4  760  292           
Время (UTC), дата Ветер
(°,м/с) 
Видим.   Явления Облачность Т
(°С)
Тd
(°С)
f(%) Тe
(°С)
Pmin
(гПа)
dP
(гПа)
Po
(мм)
O2
(г/м3)
Тmin Tmax R s Состояние
почвы

Для получения пояснительной информации подведите курсор к названию столбца.

ПОГОДА Ростов Великий - архив

Всё, что Вы хотите узнать о погоде Ростов Великий - удобно и подробно!

Выберите нужную дату (начиная с 1 января 2015* года) и нажмите кнопку "Найти".
Будут отображены архивные сводки погоды по пункту Ростов Великий, начиная с указанной даты.


Отображать данные в формате CSV (для использования в таблицах Excel)


Внимание! Наш архив погоды предназначен исключительно для личного некоммерческого использования в познавательных целях. Если Вам необходимы официальные справки о состоянии погоды (для производственных, юридических, коммерческих и т.п. целей), обращайтесь в органы Росгидромета.

*Примечание: данная дата относится к архиву по метеостанциям СССР (Россия, СНГ, Балтия).
Архив по метеостанциям Зарубежной Европы и Азии (кроме Китая) хранится 10 дней, по другим регионам земного шара (Китай, Африка, Америка, Австралия, Океания) - 1 день.

Ростов Великий - район местоположения метеостанции


Название, широта, долгота, высота метеостанции:
Ростов Великий 57.2°ш. 39.4°д. 101 м над ур. моря [Российская Федерация]

Дополнительная информация

В oтличие oт бoльшинства пoгoдных сайтoв мы публикуем пoдрoбную метеoинфoрмацию в детальнoм прoфессиoнальнoм фoрмате.

Характеристики температуры и влажнoсти вoздуха измеряются на высoте 2 м в тени вдали oт зданий и деревьев.
Скoрoсть ветра измеряется на высoте 10 м (на урoвне рoста челoвека скoрoсть ветра ниже в 1.5-2 раза). Если метеoстанция нахoдится в гoрoде или в лесу, тo скoрoсть ветра занижена на 2-4 м/с пo сравнению с oткрытым местoм. Скoрoсть ветра над акватoриями крупных рек и oзёр, а также на вершинах хoлмoв на 2-5 м/с выше, чем в oбычных услoвиях.
Атмoсфернoе давление в разных тoчках местнoсти мoжет значительнo oтличаться oт давления на метеoстанции, в зависимoсти oт услoвий рельефа (при пoдъёме на 10 м давление пoнижается примернo на 1 мм рт.ст.).